Cloud_Cover
10 4 0 40 94 100 5 1 0 70 14 4 90 100 100 100 100 100 100 86 5 5 2 0 2 5 0 0 0 0 0 5 0 0 0 0 5 6 5 21 81 81 95 90
19 0 80 100 89 14 5 5 83 100 91 4 100 100 100 100 100 100 32 7 4 0 0 1 60 0 0 0 0 5 22 26 0 0 0 0 5 94 40 19 56 95 86 94
3 78 100 100 75 5 5 92 100 100 100 100 100 100 100 69 75 6 86 16 0 4 6 54 100 0 0 0 4 28 8 0 0 0 0 0 38 100 99 16 59 80 88 27
4 100 97 24 4 73 84 100 100 100 100 100 100 100 6 26 100 97 42 99 2 4 57 90 63 0 0 1 5 0 0 0 0 0 0 1 100 44 78 5 9 46 100 32
84 100 100 99 100 99 100 100 83 100 99 100 23 62 5 100 100 94 77 4 0 0 4 4 0 0 0 3 0 0 0 0 0 0 0 21 50 33 5 6 38 98 84 100
100 100 27 5 7 1 100 9 100 70 72 100 12 94 8 100 79 6 5 0 0 0 0 0 0 0 0 0 0 0 0 0 0 0 0 8 1 5 12 98 79 98 5 67
100 100 100 100 100 100 100 57 49 100 100 99 77 100 92 100 13 5 4 0 0 0 0 0 0 0 0 0 0 0 0 0 0 0 0 4 3 59 100 98 98 100 6 71
100 100 100 100 100 100 100 100 100 100 100 100 100 100 100 99 5 5 0 1 4 0 0 0 0 0 0 0 0 0 0 0 0 0 1 2 70 100 79 100 99 35 16 17
100 100 100 100 100 100 100 100 100 100 100 100 96 21 5 82 5 2 0 0 4 0 0 0 0 0 0 0 0 0 0 0 0 0 1 4 100 98 78 97 62 15 68 72
100 100 100 100 100 100 99 78 11 94 100 99 5 5 76 58 5 0 0 0 0 0 0 0 0 0 0 0 0 0 0 0 0 0 1 42 100 43 60 5 19 5 8 47
1 97 100 100 36 98 100 99 30 61 74 99 8 5 40 5 5 2 0 0 0 0 0 0 0 0 0 0 0 0 0 0 0 0 2 94 100 100 31 87 89 42 22 68
0 0 14 14 100 85 6 5 5 5 74 4 6 64 5 5 0 0 2 5 1 0 0 0 0 0 0 0 0 0 0 0 0 0 3 94 100 98 91 100 15 5 93 100
20 0 0 0 0 0 1 20 48 5 0 10 47 0 5 5 4 5 5 5 2 0 0 0 0 0 0 0 0 0 0 0 0 0 29 95 100 100 98 100 6 79 79 100
3 2 0 0 0 1 0 2 18 1 3 12 0 2 5 5 4 4 5 5 5 1 0 0 0 0 0 0 0 0 0 0 0 0 14 86 85 100 100 86 68 14 81 100
5 0 1 1 0 0 0 0 0 0 1 1 0 5 5 5 5 5 5 5 5 0 0 0 0 0 0 0 0 0 0 0 0 0 3 71 25 100 15 97 91 5 43 44
5 5 2 5 0 0 0 0 3 0 0 0 1 5 3 7 5 5 5 5 5 1 0 0 0 0 0 0 0 0 0 0 0 0 0 5 5 81 100 100 100 90 4 25
0 5 3 0 1 0 0 0 4 5 0 0 0 2 0 80 9 5 22 7 4 5 0 0 0 0 0 0 0 0 0 0 0 0 0 2 5 35 98 66 92 100 100 43
0 3 0 2 8 0 4 0 5 5 15 0 0 0 0 55 7 18 100 64 5 5 0 0 0 0 0 0 0 0 0 0 0 0 0 1 31 23 5 18 34 88 59 100
2 4 5 14 0 0 5 10 16 5 60 24 3 0 5 29 5 52 44 63 5 5 5 3 0 0 0 0 0 0 0 0 0 0 1 0 5 5 15 1 26 76 64 29
58 4 5 28 0 0 4 53 81 90 25 55 3 0 0 41 92 71 5 100 100 5 5 6 0 0 0 0 0 0 0 0 0 0 0 0 5 4 0 0 4 5 37 70
100 97 0 4 0 2 99 100 100 2 98 99 65 1 0 14 33 3 6 100 78 5 5 5 5 5 0 0 0 0 0 0 0 0 0 0 0 0 4 12 4 1 0 5
100 100 58 62 52 5 97 92 92 27 59 48 42 2 0 1 0 5 5 70 100 18 5 26 5 5 5 1 0 0 0 0 0 0 0 0 0 0 0 0 0 0 0 0
100 100 100 100 64 29 13 100 6 95 26 42 5 3 0 0 0 1 5 5 14 5 5 36 5 5 4 0 0 0 0 0 0 0 0 0 0 0 0 0 0 3 0 0
100 100 100 37 100 48 4 12 10 25 62 0 0 1 0 0 0 0 0 5 5 26 5 6 5 4 4 0 0 0 0 0 0 0 0 0 0 0 0 0 0 0 0 0
100 100 100 100 16 98 8 5 5 86 100 2 5 1 3 1 0 0 0 0 5 5 5 6 5 1 5 1 0 0 0 0 0 0 0 0 0 0 0 0 0 0 0 0
100 100 100 100 68 93 43 29 5 5 3 3 5 33 50 4 0 0 5 4 5 4 5 6 7 5 5 0 0 0 0 0 0 3 0 0 0 0 0 0 0 0 0 0